Year,Month,Day,Hour,Minute,Value (Times are PST for temperature in C)
2014,07,21,00,19,13.90
2014,07,21,00,43,14.00
2014,07,21,01,08,14.20
2014,07,21,01,32,14.10
2014,07,21,01,59,14.20
2014,07,21,02,23,13.90
2014,07,21,02,48,13.70
2014,07,21,03,13,13.70
2014,07,21,03,37,13.50
2014,07,21,04,02,13.70
2014,07,21,04,32,13.40
2014,07,21,04,55,13.30
2014,07,21,05,18,13.50
2014,07,21,05,43,13.70
2014,07,21,06,08,13.80
2014,07,21,06,34,13.90
2014,07,21,06,58,13.70
2014,07,21,07,21,12.90
2014,07,21,07,48,12.30
2014,07,21,08,12,12.80
2014,07,21,08,37,13.40
2014,07,21,08,58,14.30
2014,07,21,09,23,15.60
2014,07,21,09,48,14.90
2014,07,21,10,12,16.20
2014,07,21,10,38,16.40
2014,07,21,10,59,16.60
2014,07,21,11,22,16.60
2014,07,21,11,46,16.90
2014,07,21,12,10,17.30
2014,07,21,12,34,17.10
2014,07,21,12,59,16.40
2014,07,21,13,22,16.50
2014,07,21,13,45,16.10
2014,07,21,14,09,16.50
2014,07,21,14,34,17.00
2014,07,21,15,00,16.50
2014,07,21,15,23,16.80
2014,07,21,15,46,17.20
2014,07,21,16,10,16.90
2014,07,21,16,34,17.00
2014,07,21,16,59,18.00
2014,07,21,17,22,19.10
2014,07,21,17,46,17.90
2014,07,21,18,11,17.70
2014,07,21,18,36,17.50
2014,07,21,19,01,17.20
2014,07,21,19,24,16.60
2014,07,21,19,47,16.90
2014,07,21,20,11,16.80
2014,07,21,20,35,16.10
2014,07,21,21,00,16.20
2014,07,21,21,23,16.40
2014,07,21,21,45,16.20
2014,07,21,22,08,16.20
2014,07,21,22,34,16.40
2014,07,21,23,00,16.30
2014,07,21,23,23,15.60
2014,07,21,23,45,14.80
